Погода Ремонтное

Погода Ремонтное : погода сейчас, прогноз погоды и архив. Всё, что Вы хотите узнать о погоде Ремонтное!

Поиск расширенной информации на нашем сайте:

Другие новости

Новости СМИ2

Главная страница сайта

Новости сайта

03.07.2017

Напоминаем, что на нашем специализированном сайте Метеоцентр.Азия вы можете получить высокодетализированные автоматические прогнозы погоды по пунктам России, СНГ и мира в авиационном формате (включающие направление и скорость ветра, видимость, явления погоды, количество и форму облачности, нижнюю и верхнюю границу облачности).


Погода Ремонтное - сегодня

Время (UTC), дата Ветер
(°,м/с) 
Видим.   Явления Облачность Т
(°С)
Тd
(°С)
f(%) Тe
(°С)
Pmin
(гПа)
dP
(гПа)
Po
(мм)
O2
(г/м3)
Тmin Tmax R s Состояние
почвы
12 09.12.17 140 (ЮВ) 10 км    10/10 600 м 
[Sc]
+1.3 -1.4 82 +1  1023.4  -0.6  758  304           
15 09.12.17 140 (ЮВ) 4000 м  дымка  10/10 600 м 
[Sc]
+1.2 -1 85 1023.2  -0.2  757  304    +1.4       
18 09.12.17 150 (ЮВ) 4000 м  дымка  9/3 600 м средняя 
[Sc|Ac trans]
+0.7 -0.8 90 -1  1022.9  -0.3  757  304           
21 09.12.17 160 (Ю) 4000 м  дымка  10/10 300 м 
[Sc]
+1 -0.6 89 -1  1023.2  0.3  757  304           
00 10.12.17 150 (ЮВ) 4000 м  дымка  8/0 верхняя 
[Cs]
+0.1 -1.4 90 -2  1023  -0.3  757  305           
03 10.12.17 150 (ЮВ) 4000 м  дымка  8/0 верхняя 
[Cs]
-0.6 -1.9 91 -1  1022.9  -0.1  757  306  -0.6         
06 10.12.17 150 (ЮВ) 4000 м  дымка  9/0 средняя, верхняя 
[Ac lent|Ci]
+0.8 -1.1 87 1022.8  757  304  -1.6         
09 10.12.17 160 (Ю) 4{10}  10 км    8/1 600 м верхняя 
[Sc|Ci fib]
+7 +0.9 65 +6  1021.6  -0.9  756  297           
12 10.12.17 160 (Ю) 3{10}  10 км    1/0 верхняя 
[Ci fib]
+7.4 +1.9 68 +7  1020.7  -0.9  756  296           
15 10.12.17 140 (ЮВ) 4000 м  дымка  8/8 600 м 
[Sc]
+2.6 +1.3 91 +1  1020.3  -0.6  755  301    +8       
18 10.12.17 130 (ЮВ) 2000 м  дымка  3/0 верхняя 
[Ci fib]
+1.7 +0.5 92 -1  1019  -1.3  754  302           
21 10.12.17 140 (ЮВ) 2000 м  дымка  10/10 300 м 
[Sc]
+3.1 +1.8 91 +2  1018.9  -0.1  754  300           
00 11.12.17 160 (Ю) 2000 м  дымка  10/10 300 м 
[Sc]
+3.3 +2.1 92 +2  1019  0.1  754  300           
03 11.12.17 180 (Ю) 2000 м  дымка  10/10 300 м 
[Sc]
+3.7 +2.8 94 +2  1021.1  2.2  756  300  +1.5         
06 11.12.17 240 (ЮЗ) 2000 м  дымка  10/10 300 м кучево-дожд. 
[Cb cap]
+4.5 +2.8 89 +5  1023.2  2.1  758  300           
09 11.12.17 280 (З) 10 км  {ливн. осадки}  8/4 300 м кучево-дожд., средняя, верхняя 
[Cb cap|Ac trans|Ci fib]
+6.2 -1 60 +4  1025.4  2.2  759  299           
12 11.12.17 270 (З) 2{10}  10 км  {ливн. осадки}  3/1 600 м средняя, верхняя 
[Sc|Ac trans|Ci fib]
+5.4 -1.5 61 +5  1025.9  0.5  760  300           
15 11.12.17 240 (ЮЗ) 10 км    ясно 
+1.1 -2.8 75 1028.3  2.1  761  306    +6.4  0.0     
18 11.12.17 120 (ЮВ) 4000 м  дымка  10/10 600 м 
[Sc]
-1.3 -3.2 87 -2  1028.4  761  309           
21 11.12.17 190 (Ю) 4000 м  дымка  10/10 300 м 
[Sc]
+1.8 -0.9 82 +1  1028.1  -0.1  761  305           
00 12.12.17 130 (ЮВ) 10 км    10/8 300 м средняя 
[Sc|Ac und]
+2.1 -0.7 82 +3  1028.1  -0.1  761  304           
03 12.12.17 130 (ЮВ) 4000 м  дымка  10/6 300 м средняя, верхняя 
[Sc|Ac lent|Ci fib]
+1.6 -0.5 86 +2  1027.2  -0.8  760  305  -1.5         
06 12.12.17 170 (Ю) 10 км    10/8 600 м средняя 
[Sc|Ac As]
+3.7 +0.7 81 +3  1027.1  760  302           
09 12.12.17 180 (Ю) 10 км  в посл. час ливневой дождь  10/10 600 м кучево-дожд. 
[Cb cap]
+5.6 +2.1 78 +5  1026.2  -0.8  760  300           
12 12.12.17 160 (Ю) 10 км  {ливн. осадки}  10/10 600 м кучево-дожд. 
[Cb cap]
+6.6 +2.3 74 +6  1025.6  -0.6  759  298           
Время (UTC), дата Ветер
(°,м/с) 
Видим.   Явления Облачность Т
(°С)
Тd
(°С)
f(%) Тe
(°С)
Pmin
(гПа)
dP
(гПа)
Po
(мм)
O2
(г/м3)
Тmin Tmax R s Состояние
почвы

Для получения пояснительной информации подведите курсор к названию столбца.

ПОГОДА Ремонтное - архив

Всё, что Вы хотите узнать о погоде Ремонтное - удобно и подробно!

Выберите нужную дату (начиная с 1 января 2015* года) и нажмите кнопку "Найти".
Будут отображены архивные сводки погоды по пункту Ремонтное, начиная с указанной даты.


Отображать данные в формате CSV (для использования в таблицах Excel)


Внимание! Наш архив погоды предназначен исключительно для личного некоммерческого использования в познавательных целях. Если Вам необходимы официальные справки о состоянии погоды (для производственных, юридических, коммерческих и т.п. целей), обращайтесь в органы Росгидромета.

*Примечание: данная дата относится к архиву по метеостанциям СССР (Россия, СНГ, Балтия).
Архив по метеостанциям Зарубежной Европы и Азии (кроме Китая) хранится 10 дней, по другим регионам земного шара (Китай, Африка, Америка, Австралия, Океания) - 1 день.

Ремонтное - район местоположения метеостанции


Название, широта, долгота, высота метеостанции:
Ремонтное 46.6°ш. 43.7°д. 106 м над ур. моря [Российская Федерация]

Дополнительная информация

В oтличие oт бoльшинства пoгoдных сайтoв мы публикуем пoдрoбную метеoинфoрмацию в детальнoм прoфессиoнальнoм фoрмате.

Характеристики температуры и влажнoсти вoздуха измеряются на высoте 2 м в тени вдали oт зданий и деревьев.
Скoрoсть ветра измеряется на высoте 10 м (на урoвне рoста челoвека скoрoсть ветра ниже в 1.5-2 раза). Если метеoстанция нахoдится в гoрoде или в лесу, тo скoрoсть ветра занижена на 2-4 м/с пo сравнению с oткрытым местoм. Скoрoсть ветра над акватoриями крупных рек и oзёр, а также на вершинах хoлмoв на 2-5 м/с выше, чем в oбычных услoвиях.
Атмoсфернoе давление в разных тoчках местнoсти мoжет значительнo oтличаться oт давления на метеoстанции, в зависимoсти oт услoвий рельефа (при пoдъёме на 10 м давление пoнижается примернo на 1 мм рт.ст.).